Location: Pl�tzky
(52.0521°N, 11.8020°E)
Time: 03:04:22
(UTC+00:00)

USA 229 - Pass Details

Date: 22 February 2020
Orbit: 986 x 1226 km, 63.4° (Epoch: 26 March)

Event Time Altitude Azimuth Distance (km) Brightness Sun altitude
Rises 17:20:03 0° 200° (SSW) 3,706 6.9 -7.1°
Reaches altitude 10° 17:22:39 10° 195° (SSW) 2,778 6.2 -7.5°
Maximum altitude 17:28:52 49° 123° (ESE) 1,321 3.9 -8.4°
Drops below altitude 10° 17:35:26 10° 51° (NE) 2,930 5.5 -9.4°
Enters shadow 17:37:19 - 47° (NE) 3,597 6.0 -9.7°
